Regional Weather Roundup
Issued by NWS New Orleans/Baton Rouge, LA

Home | Current Version | Previous Version | Text Only | Print | Product List | Glossary Off
Versions: 1 2 3 4 5 6 7 8 9 10 11 12 13 14 15 16 17 18 19 20 21 22 23 24 25 26 27 28 29 30 31 32 33 34 35 36 37 38 39 40 41 42 43 44 45 46 47 48 49 50

250
ASUS44 KLIX 010501
RWRLIX
NEW ORLEANS REGIONAL WEATHER ROUNDUP
NATIONAL WEATHER SERVICE NEW ORLEANS LA
1100 PM CST SAT JAN 31 2015

NOTE: "FAIR" INDICATES FEW OR NO CLOUDS BELOW 12,000 FEET WITH NO
      SIGNIFICANT WEATHER AND/OR OBSTRUCTIONS TO VISIBILITY.
      SKY/WX - SKY CONDITION AND SIGNIFICANT WEATHER.
      TMP - AIR TEMPERATURE.     DP    - DEWPOINT TEMPERATURE.
      RH  - RELATIVE HUMIDITY.   PRES  - PRESSURE.
      HI  - HEAT INDEX.          WCI   - WIND CHILL INDEX.

*  THESE STATIONS ARE NOT NWS OR FAA STATIONS AND ARE NOT UNDER
   NWS QUALITY CONTROL.

LAZ038-040-048-061>063-065>067-069-010600-
SOUTHEAST LOUISIANA

CITY           SKY/WX    TMP DP  RH WIND       PRES   REMARKS
N.O. AUDUBON     N/A     59  53  80 MISG        N/A
N.O. INTL ARPT MOCLDY    57  51  80 E7        30.14S
N.O. LAKEFRONT CLOUDY    60  51  72 E14       30.14F
N.O. DOWNTOWN* NOT AVBL
SLIDELL        MOCLDY    53  49  86 E3        30.15F
BATON ROUGE    CLOUDY    54  48  80 E8        30.12F
BOOTHVILLE     MOCLDY    58  53  84 E7        30.16R
BELLE CHASSE   CLOUDY    59  51  75 E10       30.13F
BOGALUSA*        N/A     52  45  77 SE3       30.18S
GALLIANO*      NOT AVBL
NEW ROADS*     NOT AVBL
GONZALES*      NOT AVBL
HAMMOND*       NOT AVBL
HOUMA*         CLOUDY    59  54  85 E9        30.12S
PORT FOURCHON* PTCLDY    64  59  82 SE13      30.14F

$$

MSZ070-080>082-010600-
SOUTHERN MISSISSIPPI

CITY           SKY/WX    TMP DP  RH WIND       PRES   REMARKS
MCCOMB         CLOUDY    50  45  83 SE7       30.15S
GULFPORT       MOCLDY    50  45  83 E3        30.17F
BILOXI         MOCLDY    51  47  87 E6        30.18F
PASCAGOULA     MOCLDY    43  42  97 CALM      30.20S

$$

COASTAL OBSERVATIONS
LAKE AND NEARSHORE STATIONS

STATION/POSITION TIME  TEMP    WIND        PRES    WAVE
                       AIR SEA DIR/SP/G            HT/PER
                 (UTC) (F)     (DEG/KT/KT) (MB)    (FT/S)
PASCAGOULA       0422   54      80/  5/  9 1021.9
WAVELAND YACHT   0422   53      60/  4/  5 1021.5
GRAND ISLE       0422   63 63  110/  8/ 14 1020.9
SOUTHWEST PASS   0422   64 49  120/ 18/ 22 1020.6
NEW CANAL        0422   57 55   80/  2/  7 1021.0
SHELL BEACH      0422   58 57  100/ 12/ 13 1020.9

OFFSHORE STATIONS

STATION/POSITION TIME  TEMP    WIND        PRES    WAVE
                       AIR SEA DIR/SP/G            HT/PER
                 (UTC) (F)     (DEG/KT/KT) (MB)    (FT/S)
64 S DAUPHIN ISL 0355   65 69  140/ 17/ 21 1021.5    5/ 6

$$




USA.gov is the U.S. government's official web portal to all federal, state and local government web resources and services.